User: anonymous   Login
Location: G�migny
(47.9646°N, 1.6950°E)
Time: 16:45:12
(UTC+00:00)
Language:

Cosmos 1727 Rocket - Orbit

View from above orbital plane
View from above orbital plane
View from above satellite
View from above satellite

Ground track
Ground track

The orbit data is extracted from the following two-line orbital elements,

1 16511U 86008B   19346.15394920  .00000023  00000-0  83074-5 0  9994
2 16511  82.9451 266.5460 0022754 266.5799 204.1751 13.75815199701128
Epoch (UTC): 12 December 2019 03:41:41
Eccentricity: 0.0022754
inclination: 82.9451°
perigee height: 962 km
apogee height: 995 km
right ascension of ascending node: 266.5460°
argument of perigee: 266.5799°
revolutions per day: 13.75815199
mean anomaly at epoch: 204.1751°
orbit number at epoch: 70112

The dashed part of the orbit path shows where the satellite is in the earth's shadow,  

DLR